Location: Northfleet
(51.4333°N, 0.3333°E)
Time: 00:57:05
(UTC+00:00)

Daily predictions for brighter satellites

Satellite Brightness Start Highest point End
(mag) Time Altitude Azimuth Time Altitude Azimuth Time Altitude Azimuth
CENTAUR R/B 4.4 02:05:13 28° NNE 02:05:13 28° NNE 02:09:37 10° NE
ACS3 Solar Sail 4.0 02:00:52 10° NE 02:03:45 18° ENE 02:03:45 18° ENE
ADEOS Rocket 4.4 02:33:15 10° NNE 02:38:45 38° E 02:38:45 38° E
Cosmos 2219 Rocket 4.0 02:55:06 27° E 02:55:06 27° E 02:58:50 10° NE
CZ-2D R/B 4.4 03:13:26 10° N 03:14:23 15° N 03:14:23 15° N
USA 267 3.7 03:14:14 10° ENE 03:20:18 54° SE 03:20:18 54° SE
Cosmos 1980 Rocket 4.3 03:27:56 17° N 03:27:56 17° N 03:29:42 10° NNE
H-2A R/B 3.9 03:26:15 10° NNE 03:28:05 23° NNE 03:28:05 23° NNE
Cosmos 2278 Rocket 3.7 03:29:48 26° N 03:31:39 32° NE 03:36:41 10° ESE
USA 238 DEB 4.0 03:33:04 54° N 03:33:04 54° N 03:38:44 10° NE
USA 238 4.0 03:33:10 54° N 03:33:10 54° N 03:38:51 10° NE
Cosmos 2333 Rocket 3.1 03:39:30 42° NNE 03:39:30 42° NNE 03:43:16 10° NNE
ADEOS II 4.0 03:38:25 10° N 03:39:55 19° N 03:39:55 19° N
Lacrosse 5 rocket 4.0 03:46:58 13° ENE 03:46:58 13° ENE 03:47:25 10° ENE
COSMOS 2455 3.1 03:45:06 63° NNE 03:45:06 63° NNE 03:50:08 10° NE
ACS3 Solar Sail 1.9 03:42:44 10° NNE 03:47:53 67° N 03:47:53 67° N
Resurs 1-4 Rocket 4.3 03:47:15 10° N 03:48:13 15° N 03:48:13 15° N
CENTAUR R/B 4.0 03:52:18 28° NNW 03:54:56 35° N 04:02:43 10° ENE
Cosmos 2360 Rocket 2.6 03:59:08 54° N 03:59:08 54° N 04:03:38 10° NNE
Cosmos 2322 Rocket 2.7 03:59:32 48° N 03:59:32 48° N 04:03:50 10° NNE
USA 234 3.2 03:52:35 10° SE 03:58:53 63° SSW 03:58:53 63° SSW
SL-16 R/B 3.3 04:06:02 32° N 04:06:02 32° N 04:09:41 10° NNE
Cosmos 44 Rocket 3.5 04:05:02 72° E 04:05:02 72° E 04:09:47 10° SE
Cosmos 1943 Rocket 2.8 04:06:17 29° N 04:08:54 52° NE 04:14:16 10° SE
H-2A R/B 4.4 04:08:18 10° NNE 04:11:15 41° ENE 04:11:15 41° ENE
Okean 1-7 3.6 04:13:10 51° NE 04:13:10 51° NE 04:16:36 10° NNE
ARGOS 3.1 04:09:10 10° NNE 04:14:37 84° ESE 04:16:17 47° S
PAYLOAD A 4.4 04:10:01 10° NNE 04:15:26 66° ESE 04:20:29 11° S
Cosmos 1140 Rocket 3.5 04:15:56 51° N 04:17:11 75° ENE 04:22:17 10° SSE
Timation 2 Rocket 4.1 04:14:48 26° NNW 04:18:53 78° NE 04:25:21 10° SE
CZ-2C R/B 2.4 04:14:57 10° NNE 04:19:58 82° ESE 04:21:33 45° S
Cosmos 1809 Rocket 4.4 04:18:15 10° S 04:24:21 84° E 04:30:28 10° NNE
ADEOS Rocket 3.3 04:18:45 10° N 04:24:57 53° WNW 04:25:40 50° W
NOSS 3-1 (C) 3.5 04:27:25 32° S 04:29:26 55° SE 04:35:01 10° NE
Iridium 4 Rocket 4.4 04:26:40 10° N 04:30:49 39° E 04:34:46 10° SSE
SJ 16-02 3.8 04:27:52 10° N 04:30:57 19° NE 04:34:01 10° E
Cosmos 2100 Rocket 3.8 04:25:02 10° N 04:31:13 87° W 04:37:23 10° S
Cosmos 2219 Rocket 2.2 04:36:49 54° W 04:37:37 59° NW 04:43:16 10° NNE
SL-24 R/B - RUBIN 2 3.8 04:39:23 56° WSW 04:40:27 76° NW 04:45:21 10° NE
TIMED 4.4 04:40:17 55° NNW 04:41:12 86° ENE 04:45:28 10° SSE
Cosmos 1707 Rocket 4.1 04:42:43 43° NNW 04:42:43 43° NNW 04:45:56 10° N
COSMOS 2428 2.9 04:41:51 10° SSW 04:47:30 72° ESE 04:53:12 10° NNE
USA 59 Rocket -0.6 04:50:48 65° SE 04:50:48 65° SE 04:53:43 10° NE
SL-08 RB Rocket 3.6 04:47:03 10° N 04:51:35 65° WNW 04:53:29 33° SW
Cosmos 1459 Rocket 3.9 04:46:04 10° NNW 04:52:25 71° W 04:58:43 10° S
Cosmos 1864 Rocket 4.4 04:47:01 10° N 04:53:19 87° W 04:59:39 10° S
Cosmos 2322 3.6 04:50:01 14° SSW 04:54:57 90° ESE 05:00:40 10° NNE
FengYun 1-2 T 4.3 04:50:59 10° NNE 04:56:34 78° ESE 05:02:10 10° SSW
CZ-2D R/B 4.2 04:55:07 10° NNW 04:55:38 11° NNW 04:55:38 11° NNW
Cosmos 407 Rocket 3.4 04:54:46 15° NNW 04:59:08 87° ENE 05:04:15 10° SSE
COSMO-SKYMED 1 2.9 04:55:32 10° SSE 04:59:36 60° ENE 05:03:41 10° N
Meteor 2-21 4.3 04:53:55 10° SSW 05:00:00 74° WNW 05:06:06 10° N
SKYMED 2 3.6 04:56:33 10° SSE 05:00:53 84° ENE 05:05:16 10° NNW
Cosmos 1727 Rocket 4.0 04:56:34 10° SSW 05:02:36 54° WNW 05:08:44 10° N
Cosmos 1725 Rocket 3.9 04:56:31 10° NNW 05:02:53 83° W 05:09:12 10° S
Cosmos 2228 Rocket 3.3 05:03:28 43° W 05:03:43 44° WNW 05:07:58 10° N
USA 267 3.2 04:57:20 10° ENE 05:03:52 73° NNW 05:07:39 27° W
H-2A R/B 3.6 05:06:31 10° N 05:08:34 17° NNW 05:08:34 17° NNW
Cosmos 1802 Rocket 3.9 05:04:24 10° NNW 05:10:45 68° W 05:16:59 10° S
Cosmos 1269 Rocket 4.4 05:09:27 30° WNW 05:11:10 39° WSW 05:16:01 10° S
Cosmos 1980 Rocket 4.3 05:09:42 10° NNW 05:11:20 11° NNW 05:12:57 10° N
NOSS 3-1 (A) 3.8 05:09:03 10° SSW 05:13:37 50° ESE 05:19:09 10° NE
Cosmos 2233 Rocket 4.0 05:07:43 10° N 05:14:05 85° ENE 05:20:24 10° S
Cosmos 2278 Rocket 2.2 05:11:40 16° NW 05:16:06 62° WSW 05:21:40 10° SSE
Cosmos 1328 3.5 05:13:11 10° SSW 05:16:47 59° WNW 05:20:24 10° N
Cosmos 2251 Rocket 3.7 05:12:35 10° NNW 05:17:58 74° ENE 05:23:19 10° SSE
Cosmos 1703 Rocket 3.4 05:13:50 10° SSW 05:18:11 73° WNW 05:22:35 10° N
CZ-3 R/B 4.4 05:18:46 10° SSW 05:19:47 10° S 05:20:44 10° S
NOSS 2-1 (E) 2.7 05:18:52 27° SW 05:20:34 87° NW 05:23:38 10° NE
Cosmos 1939 Rocket 3.0 05:17:12 10° N 05:20:53 43° WNW 05:23:41 16° SW
Lacrosse 5 rocket 1.8 05:20:39 29° NW 05:21:24 32° N 05:24:30 10° ENE
Cosmos 2173 Rocket 4.2 05:15:58 10° NNW 05:21:38 41° W 05:27:15 10° SSW
ADEOS II 4.1 05:20:09 10° NNW 05:20:43 11° NNW 05:20:43 11° NNW
Meteor 2-16 Rocket 4.4 05:16:29 10° SSW 05:22:36 81° W 05:28:46 10° N
Cosmos 2333 Rocket 3.5 05:21:33 20° NW 05:22:49 21° NW 05:27:11 10° NNE
USA-17 4.1 05:22:08 39° NW 05:23:10 77° SW 05:26:26 10° SE
Cosmos 2237 Rocket 2.8 05:18:01 10° SSW 05:23:35 61° ESE 05:29:10 10° NE
SL-08 R/B 4.4 05:18:54 10° NNW 05:24:59 71° W 05:31:06 10° S
BlueWalker 3 3.3 05:27:40 20° SW 05:28:04 21° SW 05:30:48 10° S
Cosmos 2292 Rocket 3.8 05:24:19 10° SSW 05:28:38 82° W 05:34:17 10° N
USA 276 4.3 05:29:39 11° SSW 05:29:39 11° SSW 05:30:05 10° SSW
COSMOS 2455 3.9 05:28:15 21° WNW 05:30:50 28° NNW 05:36:01 10° NNE
ACS3 Solar Sail 2.9 05:26:45 10° N 05:31:01 21° NW 05:32:02 20° WNW
Meteor 1-24 Rocket 3.7 05:27:40 10° SSW 05:33:21 60° WNW 05:38:53 10° N
Cosmos 2369 Rocket 3.5 05:28:28 10° NNW 05:33:45 38° NE 05:39:02 10° ESE
Helios 1A Rocket 2.8 05:30:49 10° S 05:34:03 40° W 05:36:22 17° NW
CZ-4 R/B 3.8 05:30:29 10° NNE 05:35:25 71° WNW 05:40:13 10° SSW
Cosmos 1782 Rocket 3.6 05:32:59 10° NNW 05:37:19 58° W 05:41:36 10° S
USA 234 4.5 05:38:10 10° S 05:42:59 22° SW 05:46:14 15° W
Cosmos 2360 Rocket 3.6 05:40:55 17° WNW 05:43:00 20° NNW 05:47:09 10° NNE
Cosmos 2322 Rocket 3.7 05:41:20 16° WNW 05:43:23 19° NNW 05:47:23 10° NNE
Cosmos 2123 Rocket 4.1 05:38:07 10° SSW 05:44:07 50° WNW 05:50:09 10° N
Meteor 2-5 Rocket 3.9 05:38:45 10° SSW 05:44:33 56° WNW 05:50:19 10° N
NOAA 12 4.1 05:39:22 10° NNE 05:44:41 69° WNW 05:49:58 10° SSW
Cosmos 1420 Rocket 4.4 05:40:33 10° SSW 05:45:46 68° ESE 05:51:03 10° NNE
Gbstr 26 Del rocket 3.8 05:41:19 13° WSW 05:45:51 77° SSE 05:52:09 10° ENE
CENTAUR R/B 3.7 05:39:26 10° NW 05:47:09 60° NE 05:56:13 10° ESE
Okean 1-7 4.4 05:49:34 17° WNW 05:49:53 17° WNW 05:52:45 10° NNW
SL-16 R/B 4.0 05:47:53 12° NW 05:50:09 14° NNW 05:53:09 10° N
TiPS 4.3 05:48:36 10° SW 05:51:02 85° SE 05:53:20 10° NE
Cosmos 1943 Rocket 2.8 05:47:50 11° NW 05:52:25 33° WSW 05:57:16 10° SSW
Cosmos 2016 Rocket 4.4 05:47:00 10° NNW 05:52:55 42° W 05:58:47 10° SSW
ARGOS 4.4 05:50:20 10° N 05:54:14 21° NW 05:57:45 11° W
Cosmos 1812 2.4 05:53:25 10° N 05:56:22 63° ENE 05:59:15 10° SSE
CZ-2C R/B 3.8 05:54:00 10° NNW 05:57:28 19° NW 06:00:45 11° W
Cosmos 1300 Rocket 4.2 05:53:48 10° NNW 05:57:43 33° W 06:01:34 10° SSW
Cosmos 374 Rocket 4.4 05:57:55 10° WSW 06:01:44 62° NW 06:06:16 10° NE
Cosmos 2346 Rocket 4.4 05:56:37 10° SSW 06:02:47 81° W 06:08:55 10° N
NOSS 2-1 (C) 3.5 06:00:52 13° W 06:03:17 32° NW 06:06:02 10° NNE
NOSS 2-1 (D) 3.7 06:04:54 13° W 06:07:19 28° NW 06:09:58 10° NNE
SJ 16-02 1.2 06:05:17 10° NNW 06:09:35 71° WSW 06:13:50 10° SSE
Iridium 4 Rocket 4.1 06:06:52 10° NNW 06:10:21 23° W 06:13:42 10° SW
Aureole 3 Rocket 3.3 06:06:32 10° NNW 06:10:39 69° W 06:16:17 10° S
Okean 1 Rocket 4.3 06:06:45 10° N 06:10:56 43° ENE 06:15:03 10° SE
Cosmos 2061 Rocket 4.3 06:07:31 10° NNW 06:13:20 43° W 06:19:05 10° SSW
CBERS-1 4.1 06:09:40 10° NNE 06:14:49 89° E 06:19:57 10° SSW
SWARM C 4.5 06:14:22 10° S 06:17:40 66° W 06:21:00 10° N
SWARM A 4.1 06:14:27 10° S 06:17:45 79° W 06:21:05 10° N
IRS-1D 4.2 06:14:35 10° N 06:18:57 31° WNW 06:23:15 10° WSW
Cosmos 1190 Rocket 4.4 06:13:58 10° NW 06:18:59 46° WSW 06:23:58 10° S
Cosmos 676 Rocket 4.0 06:14:50 10° NNW 06:20:05 69° WSW 06:25:15 10° SSE
NOSS 3-1 (C) 3.7 06:15:33 10° W 06:20:21 42° NNW 06:26:18 10° NE
Cosmos 1378 Rocket 3.7 06:16:06 10° S 06:20:21 76° E 06:24:39 10° NNE
Cosmos 1869 3.5 06:18:07 10° NNW 06:21:22 37° W 06:24:37 10° SSW
SL-16 R/B 3.3 06:16:22 10° S 06:21:51 52° ESE 06:27:23 10° NE
Cosmos 2219 Rocket 3.7 06:18:55 10° WNW 06:22:48 18° NNW 06:26:42 10° NNE
In-Cosmos 22 Rocket 4.3 06:17:01 10° SSW 06:22:50 85° WNW 06:28:41 10° NNE
Cosmos 2056 Rocket 3.7 06:21:15 10° SSW 06:26:40 88° ESE 06:32:06 10° NNE
Okean 2 Rocket 3.3 06:24:17 10° N 06:28:40 77° ENE 06:33:02 10° SSE
Cosmos 371 Rocket 3.5 06:25:31 10° NNW 06:30:15 54° WSW 06:34:57 10° S
NOSS 0 Rocket 4.3 06:24:50 10° WSW 06:30:41 44° NW 06:36:34 10° NNE
COSMOS 2428 3.6 06:27:21 10° WSW 06:32:16 29° NW 06:37:13 10° NNE
